Regional Weather Roundup
Issued by NWS

Home | Current Version | Previous Version | Text Only | Print | Product List | Glossary On
Versions: 1 2 3 4 5 6 7 8 9 10 11 12 13 14 15 16 17 18 19 20 21 22 23 24 25 26 27 28 29 30 31 32 33 34 35 36 37 38 39 40 41 42 43 44 45 46 47 48 49 50
000
ASUS43 KMKX 190521
RWRWI

WISCONSIN REGIONAL WEATHER ROUNDUP
NATIONAL WEATHER SERVICE MILWAUKEE/SULLIVAN WI
1100 PM CST THU DEC 18 2014

NOTE: "FAIR" INDICATES FEW OR NO CLOUDS BELOW 12,000 FEET WITH NO
SIGNIFICANT WEATHER AND/OR OBSTRUCTIONS TO VISIBILITY.

WIZ001-002-006>008-014>016-023>028-190600-
NORTHWEST WISCONSIN

CITY           SKY/WX    TMP DP  RH WIND       PRES   REMARKS
SUPERIOR ARPT  CLOUDY    24  21  89 W3        30.28R
ASHLAND        CLOUDY    21  18  88 CALM      30.28S
HAYWARD        CLOUDY    22  18  85 SW5       30.25R WCI  16
SIREN          CLOUDY    23  19  87 S3        30.27R
CUMBERLAND     CLOUDY    21  19  93 S3        30.25R
RICE LAKE      CLOUDY    23  20  90 SE6       30.27S WCI  16
CHETEK         CLOUDY    22  20  92 SE3       30.26S
LADYSMITH      CLOUDY    24  21  89 CALM      30.27R
EAU CLAIRE     CLOUDY    24  19  81 SE3       30.27R
MENOMONIE      CLOUDY    24  20  83 CALM      30.28R
NEW RICHMOND   CLOUDY    22  19  87 S3        30.27R
OSCEOLA        CLOUDY    23  20  86 S8        30.30S WCI  14
$$

WIZ003>005-009-010-017-018-190600-
NORTH CENTRAL WISCONSIN

CITY           SKY/WX    TMP DP  RH WIND       PRES   REMARKS
MANITOWISH WTR PTCLDY     3   1  88 CALM      30.22S
ARBOR VITAE    MOCLDY     9   5  86 CALM      30.22S
WOODRUFF       MOCLDY     9   5  86 CALM      30.22S
RHINELANDER    PTCLDY     5   1  83 CALM      30.22S
EAGLE RIVER    MOCLDY     4   0  82 CALM      30.22S
LAND O LAKES   PTCLDY    -1  -5  84 CALM      30.23S
PHILLIPS       CLOUDY    17  16  94 CALM      30.22S
TOMAHAWK       PTCLDY     5   2  87 CALM      30.24S
MEDFORD        MOCLDY    17  16  93 CALM      30.22S
MERRILL        PTCLDY    11   9  92 W3        30.24S
$$

WIZ029-030-035-036-043>047-190600-
CENTRAL WISCONSIN

CITY           SKY/WX    TMP DP  RH WIND       PRES   REMARKS
WAUSAU         PTCLDY    18  15  88 NW3       30.24R
MOSINEE        FAIR      19  19 100 CALM      30.25S
MARSHFIELD     CLOUDY    24  20  84 CALM      30.24S
STEVENS POINT  CLEAR     13  10  90 CALM      30.26S
WAUPACA        CLEAR     19  17  90 CALM      30.27S
WAUTOMA        PTCLDY    16  12  86 CALM      30.28S
WISC RAPIDS    PTCLDY    18  14  84 CALM      30.27S
CAMP DOUGLAS   CLOUDY    24  24  99 CALM      30.27R
$$

WIZ011>013-019>022-031-037>040-048>050-190600-
NORTHEAST WISCONSIN

CITY           SKY/WX    TMP DP  RH WIND       PRES   REMARKS
ANTIGO         PTCLDY    11  10  94 NE5       30.22S WCI   3
SHAWANO        PTCLDY    19  16  90 CALM      30.28R
OCONTO         CLEAR     14  14  97 CALM      30.28R
STURGEON BAY   CLEAR     19  16  86 N5        30.27S WCI  13
GREEN BAY      PTCLDY    19  17  92 CALM      30.27R
MANITOWOC      CLEAR     21  20  96 NW7       30.27R WCI  12
APPLETON       PTCLDY    19  16  86 W7        30.26S WCI  10
CLINTONVILLE   PTCLDY    19  18  93 CALM      30.26S
OSHKOSH        CLEAR     22  17  81 W3        30.26S
$$

WIZ032>034-041-042-053>061-190600-
SOUTHWEST WISCONSIN

CITY           SKY/WX    TMP DP  RH WIND       PRES   REMARKS
LA CROSSE      CLOUDY    26  18  71 CALM      30.29S
SPARTA         CLOUDY    25  20  82 CALM      30.29R
VIROQUA        CLOUDY    23  20  88 CALM      30.25R
BOSCOBEL       CLOUDY    27  17  66 CALM      30.30R
PRAIRIE DU CHI CLOUDY    26  18  69 CALM      30.29S
PLATTEVILLE    CLOUDY    25  20  81 CALM      30.28R
$$

WIZ056-057-062-063-064-067-068-190600-
SOUTH CENTRAL WISCONSIN

CITY           SKY/WX    TMP DP  RH WIND       PRES   REMARKS
REEDSBURG      CLOUDY    25  20  83 CALM      30.27R
BARABOO/DELLS  CLOUDY    25  20  79 CALM      30.26R
LONE ROCK      CLOUDY    29  19  66 S3        30.29R
MINERAL POINT  CLOUDY    27  21  80 CALM      30.26R
MADISON        CLOUDY    26  20  77 CALM      30.26S
MIDDLETON      CLOUDY    28  22  77 CALM      30.27R
WATERTOWN      CLOUDY    26  21  83 CALM      30.26S
MONROE         CLOUDY    27  23  86 W3        30.25S
JANESVILLE     CLOUDY    28  27  93 CALM      30.27R
$$

WIZ051-052-058>065-066-070>072-190600-
SOUTHEAST WISCONSIN

CITY           SKY/WX    TMP DP  RH WIND       PRES   REMARKS
MILWAUKEE      CLOUDY    28  20  71 NW6       30.26R WCI  22
WAUKESHA       CLOUDY    27  21  80 NW3       30.27R
MILWAUKEE/TIMM CLOUDY    28  21  74 W6        30.27R WCI  22
RACINE         CLOUDY    28  22  78 NW5       30.27S WCI  23
BURLINGTON     CLOUDY    26  23  90 N3        30.26S
KENOSHA        CLOUDY    28  23  81 N8        30.26R WCI  20
FOND DU LAC    FAIR      20  16  84 W3        30.27R
SHEBOYGAN      MOCLDY    22  17  81 NW6       30.26R WCI  14
WEST BEND      CLEAR     23  19  86 NW5       30.25R WCI  17
JUNEAU         PTCLDY    22  19  89 CALM      30.27S
$$

LSZ147-162-190600-
LAKE SUPERIOR

STATION/POSITION TIME  TEMP    WIND        PRES    WAVE
                       AIR SEA DIR/SP/G            HT/PER
                 (UTC) (F)     (DEG/KT/KT) (MB)    (FT/S)
DEVILS ISLAND    0500   27     200/  5/  6 1026.3R
PORT WING        0440   23      80/  2/  3 1025.4S
SAXON HARBOR     0400   23        CALM     1025.4S
$$

LMZ867-665-643>646-190600-
LAKE MICHIGAN

STATION/POSITION TIME  TEMP    WIND        PRES    WAVE
                       AIR SEA DIR/SP/G            HT/PER
                 (UTC) (F)     (DEG/KT/KT) (MB)    (FT/S)
CHAMBERS ISLAND  0400   28      20/  8/ 10 1024.7R
NORTHPORT PIER   0502   27      30/  5/  9 1025.1R
SISTER BAY       0413             CALM       N/A
ALGOMA LAKESHORE 0444          340/  8/  9   N/A
KEWAUNEE LAKESHO 0500   19     300/  3/  6 1023.7R
SHEBOYGAN LAKESH 0500   24 34  300/  8/  9 1025.9R
PORT WASHINGTON  0440   27     330/  4/  7 1025.4R
MILWAUKEE LAKESH 0500   28     300/  9/ 11   N/A
KENOSHA   LAKESH 0500   29     310/  7/  9 1024.7R
$$

TC  - TEMPERATURE IN CELSIUS
VSB - VISIBILITY IN STATUTE MILES
WCI - WIND CHILL INDEX
HX  - HEAT INDEX



USA.gov is the U.S. government's official web portal to all federal, state and local government web resources and services.